Tracking 28920 objects as of 27-May-2024
HD Live streaming from Space Station
objects crossing your sky now

CSC-2

Track CSC-2 now!
10-day predictions
CSC-2 is classified as:


NORAD ID: 58021
Int'l Code: 2023-155F
Perigee: 562.4 km
Apogee: 570.1 km
Inclination: 97.6 °
Period: 95.8 minutes
Semi major axis: 6937 km
RCS: Unknown
Launch date: October 9, 2023
Source: Netherlands (NETH)
Launch site: FRENCH GUIANA (FRGUI)

Uplink (MHz):
Downlink (MHz): 401.250
Beacon (MHz):
Mode: 1200bps BPSK
Call sign: CSC2
Status: Active

Your satellite tracking list
Your tracking list is empty




NASA's NSSDC Master Catalog

Two Line Element Set (TLE):
1 58021U 23155F   24147.73197373  .00007247  00000-0  54933-3 0  9997
2 58021  97.6289 217.8866 0005560 304.3274  55.7424 15.02538138 34589
Source of the keplerian elements: AFSPC